Regional Weather Roundup
Issued by NWS

Home | Current Version | Previous Version | Graphics & Text | Print | Product List | Glossary On
Versions: 1 2 3 4 5 6 7 8 9 10 11 12 13 14 15 16 17 18 19 20 21 22 23 24 25 26 27 28 29 30 31 32 33 34 35 36 37 38 39 40 41 42 43 44 45 46 47 48 49 50
000
ASUS43 KFSD 211510
RWRSD

WEATHER ROUNDUP FOR SOUTH DAKOTA
NATIONAL WEATHER SERVICE SIOUX FALLS SD
900 AM CST SUN DEC 21 2014

NOTE: "FAIR" INDICATES FEW OR NO CLOUDS BELOW 12,000 FEET WITH NO
SIGNIFICANT WEATHER AND/OR OBSTRUCTIONS TO VISIBILITY.


SDZ001>005-009-010-012>017-211600-
NORTHWEST AND NORTH CENTRAL SOUTH DAKOTA

CITY           SKY/WX    TMP DP  RH WIND       PRES   REMARKS
BUFFALO          N/A     27  21  78 E3        29.42F
FAITH            N/A     23  20  88 S9        29.51F WCI  13
MOBRIDGE       CLEAR     25  22  88 E7        29.57F WCI  17
$$

SDZ012>016-024>037-041>051-057-063-072>074-211600-
SOUTHWEST AND SOUTH CENTRAL SOUTH DAKOTA

CITY           SKY/WX    TMP DP  RH WIND       PRES   REMARKS
RAPID CTY ARPT PTCLDY    25  18  74 CALM      29.50F
PIERRE         CLEAR     24  22  91 SE7       29.59F WCI  16
CUSTER         CLEAR     31  24  75 W12       29.51F WCI  22
ELLSWORTH AFB  PTCLDY    29  20  69 SW5       29.49F WCI  24
PHILIP         CLEAR     15  12  88 W6        29.56F WCI   6
PINE RIDGE     CLEAR     27  21  78 CALM      29.58F
SPEARFISH      FAIR      34  19  55 CALM      29.49F
WINNER         FAIR      35  26  69 S18       29.61F WCI  24
$$

SDZ004>011-016>023-039-040-211600-
NORTHEAST SOUTH DAKOTA

CITY           SKY/WX    TMP DP  RH WIND       PRES   REMARKS
ABERDEEN       FOG       31  30  96 S13       29.67F VSB 1/2 WCI  21
WATERTOWN      FOG       30  29  96 S12       29.69F VSB 1/2 WCI  20
SISSETON         N/A     30  29  96 S9        29.70F WCI  22
$$

SDZ017-020-022-023-036>040-048>070-211600-
SOUTHEAST SOUTH DAKOTA

CITY           SKY/WX    TMP DP  RH WIND       PRES   REMARKS
SIOUX FALLS    FOG       32  32 100 S13       29.75S VSB 1/8 WCI  22
HURON          FOG       30  30 100 S8        29.70F VSB 1/2 WCI  22
CHAMBERLAIN    CLEAR     23  22  96 E8        29.64F FOG     WCI  14
MITCHELL       FOG       31  31 100 SE14      29.71F VSB 1/4 WCI  21
YANKTON        CLOUDY    32  30  93 S8        29.77S WCI  25
$$

ABBREVIATIONS USED IN REMARKS
   TC - TEMPERATURE IN CELSIUS
  WCI - WIND CHILL INDEX
   HX - HEAT INDEX
  VSB - VISIBILITY



USA.gov is the U.S. government's official web portal to all federal, state and local government web resources and services.